User: anonymous   Login
Location: Caltech
(34.1382°N, 118.1253°W)
Time: 20:37:25
(UTC-08:00)
Language:

Cosmos 1484 Rocket - Orbit

View from above orbital plane
View from above orbital plane
View from above satellite
View from above satellite

Ground track
Ground track

The orbit data is extracted from the following two-line orbital elements,

1 14208U 83075B   16337.52541942  .00000637  00000-0  42048-4 0  9998
2 14208  97.3468 350.1398 0041325  89.7086 270.8879 15.10189570817820
Epoch (UTC): 02 December 2016 12:36:36
Eccentricity: 0.0041325
inclination: 97.3468°
perigee height: 507 km
apogee height: 564 km
right ascension of ascending node: 350.1398°
argument of perigee: 89.7086°
revolutions per day: 15.10189570
mean anomaly at epoch: 270.8879°
orbit number at epoch: 81782

The dashed part of the orbit path shows where the satellite is in the earth's shadow,  

DLR